• în România
  • Lista ţărilor
  • Pe 7 zile
  • Temperatura apei
  • Hartă satelitară
  • Meteo pe hartă
  • Widget-uri
  • user-avatar
    Intrare

    Meteo pe oră la Sopron

    Astăzi, 17 Februarie, Sâmbătă

    Timp Temperatura Precipitaţii Vânt Presiune Umiditate
    00:00 0°C° 0 mm 0 m/s 754 mmHg 92%
    01:00 0°C° 0 mm 0 m/s 754 mmHg 92%
    02:00 0°C° 0 mm 0 m/s 754 mmHg 92%
    03:00 +1°C° 0 mm 1 m/s 753 mmHg 92%
    04:00 +1°C° 0 mm 1 m/s 753 mmHg 93%
    05:00 +1°C° 0 mm 1 m/s 753 mmHg 93%
    06:00 +1°C° 0 mm 1 m/s 753 mmHg 93%
    07:00 0°C° 0 mm 1 m/s 752 mmHg 94%
    08:00 -1°C° 0 mm 2 m/s 752 mmHg 89%
    09:00 +1°C° 0 mm 2 m/s 752 mmHg 85%
    10:00 +1°C° 0 mm 3 m/s 751 mmHg 80%
    11:00 +2°C° 0 mm 3 m/s 750 mmHg 77%
    12:00 +3°C° 0 mm 4 m/s 750 mmHg 74%
    13:00 0°C° 0 mm 4 m/s 749 mmHg 78%
    14:00 0°C° 0 mm 4 m/s 749 mmHg 79%
    15:00 +1°C° 0 mm 3 m/s 748 mmHg 80%
    16:00 +2°C° 0 mm 3 m/s 748 mmHg 81%
    17:00 +1°C° 0,2 mm 3 m/s 747 mmHg 84%
    18:00 +1°C° 0,2 mm 3 m/s 747 mmHg 87%
    19:00 +1°C° 0,2 mm 2 m/s 747 mmHg 90%
    20:00 +1°C° 0,3 mm 2 m/s 747 mmHg 91%
    21:00 +1°C° 0,3 mm 2 m/s 747 mmHg 92%
    22:00 +1°C° 0,3 mm 2 m/s 747 mmHg 93%
    23:00 +1°C° 0,3 mm 2 m/s 748 mmHg 94%

    Mâine, 18 Februarie, Duminică

    Timp Temperatura Precipitaţii Vânt Presiune Umiditate
    00:00 +1°C° 0,3 mm 2 m/s 748 mmHg 95%
    01:00 +1°C° 0,3 mm 2 m/s 748 mmHg 96%
    02:00 +1°C° 0,2 mm 2 m/s 748 mmHg 96%
    03:00 +1°C° 0,2 mm 2 m/s 749 mmHg 96%
    04:00 +1°C° 0,2 mm 2 m/s 749 mmHg 96%
    05:00 +1°C° 0,1 mm 2 m/s 750 mmHg 95%
    06:00 -1°C° 0,1 mm 3 m/s 750 mmHg 95%
    07:00 -1°C° 0,1 mm 3 m/s 751 mmHg 94%
    08:00 0°C° 0 mm 3 m/s 751 mmHg 91%
    09:00 0°C° 0 mm 3 m/s 751 mmHg 88%
    10:00 0°C° 0 mm 4 m/s 751 mmHg 85%
    11:00 +1°C° 0 mm 4 m/s 752 mmHg 81%
    12:00 +1°C° 0 mm 4 m/s 752 mmHg 78%
    13:00 +3°C° 0 mm 4 m/s 752 mmHg 74%
    14:00 +3°C° 0 mm 4 m/s 752 mmHg 75%
    15:00 +1°C° 0 mm 4 m/s 752 mmHg 76%
    16:00 +2°C° 0 mm 3 m/s 752 mmHg 77%
    17:00 +1°C° 0 mm 3 m/s 752 mmHg 81%
    18:00 0°C° 0 mm 3 m/s 752 mmHg 84%
    19:00 -1°C° 0 mm 3 m/s 752 mmHg 87%
    20:00 -1°C° 0 mm 3 m/s 752 mmHg 88%
    21:00 -2°C° 0 mm 2 m/s 752 mmHg 88%
    22:00 -2°C° 0 mm 2 m/s 752 mmHg 88%
    23:00 -2°C° 0 mm 2 m/s 752 mmHg 88%

    Poimâine, 19 Februarie, Luni

    Timp Temperatura Precipitaţii Vânt Presiune Umiditate
    00:00 -3°C° 0 mm 2 m/s 752 mmHg 87%
    01:00 -3°C° 0 mm 2 m/s 752 mmHg 87%
    02:00 -1°C° 0 mm 1 m/s 752 mmHg 87%
    03:00 -1°C° 0 mm 1 m/s 751 mmHg 86%
    04:00 -1°C° 0 mm 1 m/s 751 mmHg 86%
    05:00 -1°C° 0 mm 1 m/s 751 mmHg 86%
    06:00 -2°C° 0 mm 0 m/s 751 mmHg 86%
    07:00 -2°C° 0 mm 0 m/s 751 mmHg 87%
    08:00 -1°C° 0 mm 0 m/s 751 mmHg 82%
    09:00 +1°C° 0 mm 1 m/s 751 mmHg 77%
    10:00 +2°C° 0 mm 1 m/s 751 mmHg 72%
    11:00 +3°C° 0 mm 1 m/s 750 mmHg 69%
    12:00 +4°C° 0 mm 1 m/s 750 mmHg 67%
    13:00 +4°C° 0 mm 2 m/s 749 mmHg 64%
    14:00 +3°C° 0 mm 2 m/s 749 mmHg 66%
    15:00 +3°C° 0 mm 2 m/s 748 mmHg 68%
    16:00 +3°C° 0 mm 2 m/s 748 mmHg 70%
    17:00 +2°C° 0 mm 2 m/s 748 mmHg 74%
    18:00 +2°C° 0 mm 1 m/s 748 mmHg 78%
    19:00 +1°C° 0 mm 1 m/s 748 mmHg 82%
    20:00 +1°C° 0 mm 1 m/s 748 mmHg 82%
    21:00 +1°C° 0 mm 1 m/s 748 mmHg 82%
    22:00 +1°C° 0 mm 1 m/s 748 mmHg 82%
    23:00 +1°C° 0,1 mm 1 m/s 747 mmHg 82%

    20 Februarie, Marţi

    Timp Temperatura Precipitaţii Vânt Presiune Umiditate
    00:00 +1°C° 0,1 mm 1 m/s 747 mmHg 82%
    01:00 +1°C° 0,1 mm 1 m/s 747 mmHg 82%
    02:00 +1°C° 0,4 mm 1 m/s 746 mmHg 86%
    03:00 -1°C° 0,4 mm 2 m/s 746 mmHg 89%
    04:00 -2°C° 0,4 mm 2 m/s 745 mmHg 93%
    05:00 -2°C° 0,7 mm 2 m/s 745 mmHg 94%
    06:00 -2°C° 0,7 mm 2 m/s 745 mmHg 95%
    07:00 -2°C° 0,7 mm 2 m/s 745 mmHg 95%
    08:00 -1°C° 0,6 mm 2 m/s 745 mmHg 95%
    09:00 -1°C° 0,6 mm 3 m/s 744 mmHg 94%
    10:00 -1°C° 0,6 mm 3 m/s 744 mmHg 93%
    11:00 -1°C° 0,4 mm 3 m/s 744 mmHg 93%
    12:00 0°C° 0,4 mm 3 m/s 743 mmHg 93%
    13:00 0°C° 0,4 mm 3 m/s 743 mmHg 93%
    14:00 0°C° 0,4 mm 3 m/s 743 mmHg 94%
    15:00 +1°C° 0,4 mm 2 m/s 742 mmHg 94%
    16:00 +1°C° 0,4 mm 2 m/s 742 mmHg 95%
    17:00 +1°C° 0,3 mm 2 m/s 742 mmHg 95%
    18:00 -1°C° 0,3 mm 2 m/s 742 mmHg 95%
    19:00 -1°C° 0,3 mm 2 m/s 742 mmHg 96%
    20:00 -1°C° 0,3 mm 2 m/s 742 mmHg 96%
    21:00 -1°C° 0,3 mm 3 m/s 742 mmHg 96%
    22:00 -1°C° 0,3 mm 3 m/s 742 mmHg 95%
    23:00 -1°C° 0,2 mm 3 m/s 742 mmHg 95%

    21 Februarie, Miercuri

    Timp Temperatura Precipitaţii Vânt Presiune Umiditate
    00:00 -1°C° 0,2 mm 3 m/s 742 mmHg 95%
    01:00 -1°C° 0,2 mm 3 m/s 742 mmHg 95%
    02:00 -1°C° 0,2 mm 3 m/s 742 mmHg 94%
    03:00 -1°C° 0,2 mm 3 m/s 742 mmHg 94%
    04:00 -1°C° 0,2 mm 3 m/s 742 mmHg 94%
    05:00 -2°C° 0,1 mm 4 m/s 742 mmHg 93%
    06:00 -2°C° 0,1 mm 4 m/s 742 mmHg 93%
    07:00 -3°C° 0,1 mm 4 m/s 742 mmHg 93%
    08:00 -2°C° 0,2 mm 4 m/s 742 mmHg 92%
    09:00 -2°C° 0,2 mm 4 m/s 742 mmHg 91%
    10:00 -2°C° 0,2 mm 5 m/s 742 mmHg 90%
    11:00 -2°C° 0,2 mm 5 m/s 742 mmHg 91%
    12:00 -1°C° 0,2 mm 5 m/s 742 mmHg 91%
    13:00 -1°C° 0,2 mm 5 m/s 742 mmHg 91%
    14:00 -1°C° 0,3 mm 5 m/s 742 mmHg 91%
    15:00 -1°C° 0,3 mm 5 m/s 742 mmHg 91%
    16:00 -1°C° 0,3 mm 5 m/s 742 mmHg 92%
    17:00 -1°C° 0,2 mm 5 m/s 742 mmHg 91%
    18:00 -2°C° 0,2 mm 5 m/s 742 mmHg 91%
    19:00 -2°C° 0,2 mm 5 m/s 742 mmHg 91%
    20:00 -2°C° 0,4 mm 5 m/s 743 mmHg 91%
    21:00 -2°C° 0,4 mm 4 m/s 743 mmHg 91%
    22:00 -3°C° 0,4 mm 4 m/s 743 mmHg 91%
    23:00 -3°C° 0,5 mm 4 m/s 743 mmHg 92%

    22 Februarie, Joi

    Timp Temperatura Precipitaţii Vânt Presiune Umiditate
    00:00 -3°C° 0,5 mm 4 m/s 743 mmHg 92%
    01:00 -3°C° 0,5 mm 4 m/s 743 mmHg 92%
    02:00 -3°C° 0,3 mm 4 m/s 743 mmHg 92%
    03:00 -4°C° 0,3 mm 4 m/s 743 mmHg 92%
    04:00 -4°C° 0,3 mm 4 m/s 743 mmHg 92%
    05:00 -4°C° 0,2 mm 4 m/s 743 mmHg 91%
    06:00 -4°C° 0,2 mm 4 m/s 743 mmHg 91%
    07:00 -4°C° 0,2 mm 4 m/s 743 mmHg 91%
    08:00 -3°C° 0,1 mm 4 m/s 743 mmHg 90%
    09:00 -3°C° 0,1 mm 4 m/s 743 mmHg 89%
    10:00 -3°C° 0,1 mm 4 m/s 743 mmHg 89%
    11:00 -2°C° 0,1 mm 4 m/s 743 mmHg 89%
    12:00 -2°C° 0,1 mm 4 m/s 743 mmHg 89%
    13:00 -2°C° 0,1 mm 4 m/s 743 mmHg 90%
    14:00 -2°C° 0,1 mm 4 m/s 743 mmHg 89%
    15:00 -2°C° 0,1 mm 4 m/s 743 mmHg 88%
    16:00 -2°C° 0,1 mm 4 m/s 743 mmHg 87%
    17:00 -2°C° 0 mm 4 m/s 743 mmHg 87%
    18:00 -3°C° 0 mm 4 m/s 743 mmHg 86%
    19:00 -3°C° 0 mm 4 m/s 743 mmHg 86%
    20:00 -4°C° 0 mm 4 m/s 744 mmHg 86%
    21:00 -4°C° 0 mm 4 m/s 744 mmHg 85%
    22:00 -5°C° 0 mm 4 m/s 744 mmHg 85%
    23:00 -5°C° 0 mm 4 m/s 744 mmHg 85%
    Arată mai mult